Regional Weather Roundup
Issued by NWS Albany, NY

Home | Current Version | Previous Version | Graphics & Text | Print | Product List | Glossary Off
Versions: 1 2 3 4 5 6 7 8 9 10 11 12 13 14 15 16 17 18 19 20 21 22 23 24 25 26 27 28 29 30 31 32 33 34 35 36 37 38 39 40 41 42 43 44 45 46 47 48 49 50

000
ASUS41 KALY 291410
RWRALY

NEW YORK STATE HOURLY WEATHER ROUNDUP
NATIONAL WEATHER SERVICE ALBANY NY
1000 AM EDT SAT APR 29 2017

NOTE: "FAIR" INDICATES FEW OR NO CLOUDS BELOW 12,000 FEET WITH NO
SIGNIFICANT WEATHER AND/OR NO OBSTRUCTIONS TO VISIBILITY.

NYZ032-033-038>043-046>054-057>066-NYZ062>081-082-084-291500-
EAST


CITY           SKY/WX    TMP DP  RH WIND       PRES   REMARKS
ALBANY         CLOUDY    72  50  45 W9        29.97R
GLENS FALLS    PTSUNNY   71  47  42 SW8       29.95R
POUGHKEEPSIE   CLOUDY    71  56  58 SW8       29.99R
NEWBURGH       PTSUNNY   68  61  77 W12       30.02R
MONTGOMERY     CLOUDY    69  59  70 SW8       30.00R
WHITE PLAINS   CLOUDY    72  63  73 VRB6      30.02R
ISLIP          CLOUDY    63  61  93 SW14G23   30.03R
NEW YORK CITY  CLOUDY    75  64  68 SW10      30.02R
CENTRAL PARK   MOSUNNY   72  65  78 VRB3      30.05R
$$

NYZ005>009-017-018-044>046-055-056-291500-
CENTRAL


CITY           SKY/WX    TMP DP  RH WIND       PRES   REMARKS
FULTON         CLOUDY    57  48  72 NW8       30.05R
SYRACUSE       CLOUDY    58  48  69 W10       30.05R
ROME           CLOUDY    60  50  69 W10       30.04R
ELMIRA         CLOUDY    64  51  62 SW6       30.05R
BINGHAMTON     CLOUDY    62  49  62 W7        30.05R
MONTICELLO     CLOUDY    64  57  77 W9        30.05S
$$

NYZ026>034-041>043-087-291500-
NORTH


CITY           SKY/WX    TMP DP  RH WIND       PRES   REMARKS
WATERTOWN      CLOUDY    56  48  74 SW8       30.03R
FORT DRUM      NOT AVBL
OGDENSBURG     FAIR      62  46  54 SW8       29.97S
MASSENA        CLOUDY    60  45  57 SW13      29.96F
SARANAC LAKE   CLOUDY    61  44  53 W13G26    29.95S
PLATTSBURGH    CLOUDY    70  44  39 W9        29.91R
$$

NYZ001>004-010>016-019>021-085-291500-
WEST


CITY           SKY/WX    TMP DP  RH WIND       PRES   REMARKS
NIAGARA FALLS  CLOUDY    50  37  61 N5        30.10S
BUFFALO        CLOUDY    51  39  63 N9        30.10R
DUNKIRK        CLOUDY    55  53  93 NW3       30.10R
JAMESTOWN      CLOUDY    54  50  87 NW8       30.09R VSB<1/4
WELLSVILLE     CLOUDY    60  52  74 VRB3      30.09R
ROCHESTER      CLOUDY    54  44  69 NW7       30.09R
PENN YAN       CLOUDY    60  51  72 W6        30.06R
$$

             KEY
       WCI = WIND CHILL INDEX
       VSB = VISIBILITY
       HX  = HEAT INDEX
$$



USA.gov is the U.S. government's official web portal to all federal, state and local government web resources and services.